Hourly Weather Bolshoe Zakustische

Today, 30 July, Friday

Time Temperature Precipitation Wind Pressure Humidity
00:00 +19°C° 0.2 mm 1 mps 739 mmHg 96%
01:00 +19°C° 0.2 mm 1 mps 739 mmHg 97%
02:00 +19°C° 0.2 mm 1 mps 739 mmHg 98%
03:00 +19°C° 0.3 mm 1 mps 739 mmHg 98%
04:00 +19°C° 0.3 mm 1 mps 739 mmHg 98%
05:00 +19°C° 0.3 mm 1 mps 739 mmHg 98%
06:00 +20°C° 0.2 mm 1 mps 739 mmHg 96%
07:00 +19°C° 0.2 mm 2 mps 739 mmHg 93%
08:00 +20°C° 0.2 mm 2 mps 739 mmHg 91%
09:00 +21°C° 0.1 mm 2 mps 739 mmHg 79%
10:00 +24°C° 0.1 mm 3 mps 739 mmHg 67%
11:00 +26°C° 0.1 mm 4 mps 739 mmHg 54%
12:00 +26°C° 0 mm 4 mps 739 mmHg 51%
13:00 +27°C° 0 mm 4 mps 738 mmHg 47%
14:00 +27°C° 0 mm 4 mps 738 mmHg 43%
15:00 +26°C° 0 mm 4 mps 738 mmHg 49%
16:00 +24°C° 0 mm 3 mps 738 mmHg 54%
17:00 +21°C° 0 mm 3 mps 738 mmHg 60%
18:00 +21°C° 0 mm 3 mps 738 mmHg 62%
19:00 +20°C° 0 mm 3 mps 738 mmHg 64%
20:00 +19°C° 0 mm 2 mps 738 mmHg 65%
21:00 +19°C° 0 mm 3 mps 738 mmHg 65%
22:00 +18°C° 0 mm 3 mps 738 mmHg 64%
23:00 +17°C° 0 mm 3 mps 738 mmHg 64%

Tomorrow, 31 July, Saturday

Time Temperature Precipitation Wind Pressure Humidity
00:00 +17°C° 0 mm 3 mps 738 mmHg 68%
01:00 +16°C° 0 mm 3 mps 738 mmHg 73%
02:00 +16°C° 0 mm 3 mps 738 mmHg 78%
03:00 +16°C° 0 mm 3 mps 738 mmHg 78%
04:00 +16°C° 0 mm 3 mps 738 mmHg 79%
05:00 +15°C° 0 mm 4 mps 738 mmHg 79%
06:00 +17°C° 0 mm 4 mps 738 mmHg 71%
07:00 +19°C° 0 mm 5 mps 738 mmHg 63%
08:00 +21°C° 0 mm 5 mps 738 mmHg 55%
09:00 +22°C° 0 mm 6 mps 738 mmHg 50%
10:00 +24°C° 0 mm 6 mps 739 mmHg 46%
11:00 +26°C° 0 mm 6 mps 739 mmHg 41%
12:00 +26°C° 0 mm 6 mps 739 mmHg 40%
13:00 +27°C° 0 mm 6 mps 739 mmHg 38%
14:00 +28°C° 0 mm 6 mps 739 mmHg 37%
15:00 +27°C° 0 mm 5 mps 739 mmHg 38%
16:00 +27°C° 0 mm 4 mps 739 mmHg 40%
17:00 +27°C° 0 mm 4 mps 739 mmHg 41%
18:00 +25°C° 0 mm 3 mps 739 mmHg 48%
19:00 +23°C° 0 mm 2 mps 740 mmHg 56%
20:00 +20°C° 0 mm 2 mps 740 mmHg 63%
21:00 +19°C° 0 mm 2 mps 740 mmHg 64%
22:00 +19°C° 0 mm 2 mps 740 mmHg 65%
23:00 +18°C° 0 mm 2 mps 740 mmHg 65%

Day after tomorrow, 1 August, Sunday

Time Temperature Precipitation Wind Pressure Humidity
00:00 +18°C° 0 mm 2 mps 740 mmHg 67%
01:00 +18°C° 0 mm 2 mps 740 mmHg 68%
02:00 +18°C° 0 mm 2 mps 740 mmHg 70%
03:00 +18°C° 1.1 mm 2 mps 740 mmHg 79%
04:00 +18°C° 1.1 mm 1 mps 740 mmHg 88%
05:00 +18°C° 1.1 mm 1 mps 740 mmHg 98%
06:00 +17°C° 1.2 mm 2 mps 740 mmHg 97%
07:00 +18°C° 1.2 mm 2 mps 739 mmHg 97%
08:00 +18°C° 1.2 mm 3 mps 739 mmHg 97%
09:00 +20°C° 0.1 mm 3 mps 740 mmHg 90%
10:00 +21°C° 0.1 mm 4 mps 740 mmHg 82%
11:00 +23°C° 0.1 mm 4 mps 740 mmHg 75%
12:00 +25°C° 0.1 mm 4 mps 740 mmHg 68%
13:00 +26°C° 0.1 mm 3 mps 740 mmHg 61%
14:00 +27°C° 0.1 mm 3 mps 739 mmHg 54%
15:00 +27°C° 0 mm 3 mps 739 mmHg 52%
16:00 +27°C° 0 mm 3 mps 739 mmHg 50%
17:00 +27°C° 0 mm 3 mps 739 mmHg 48%
18:00 +25°C° 0 mm 3 mps 739 mmHg 54%
19:00 +23°C° 0 mm 2 mps 739 mmHg 61%
20:00 +20°C° 0 mm 2 mps 740 mmHg 67%
21:00 +19°C° 0 mm 2 mps 740 mmHg 69%
22:00 +19°C° 0 mm 2 mps 740 mmHg 70%
23:00 +19°C° 0 mm 1 mps 740 mmHg 72%

2 August, Monday

Time Temperature Precipitation Wind Pressure Humidity
00:00 +19°C° 0 mm 1 mps 740 mmHg 74%
01:00 +18°C° 0 mm 1 mps 740 mmHg 76%
02:00 +18°C° 0 mm 1 mps 740 mmHg 79%
03:00 +16°C° 0 mm 1 mps 740 mmHg 81%
04:00 +16°C° 0 mm 1 mps 740 mmHg 82%
05:00 +16°C° 0 mm 1 mps 739 mmHg 84%
06:00 +18°C° 0 mm 1 mps 739 mmHg 81%
07:00 +19°C° 0 mm 1 mps 739 mmHg 77%
08:00 +20°C° 0 mm 1 mps 739 mmHg 74%
09:00 +20°C° 0.1 mm 2 mps 739 mmHg 75%
10:00 +20°C° 0.1 mm 2 mps 738 mmHg 76%
11:00 +20°C° 0.1 mm 2 mps 738 mmHg 77%
12:00 +20°C° 0.4 mm 2 mps 738 mmHg 80%
13:00 +21°C° 0.4 mm 3 mps 737 mmHg 84%
14:00 +21°C° 0.4 mm 3 mps 737 mmHg 87%
15:00 +21°C° 0.7 mm 3 mps 737 mmHg 88%
16:00 +21°C° 0.7 mm 3 mps 737 mmHg 89%
17:00 +21°C° 0.7 mm 3 mps 736 mmHg 90%
18:00 +19°C° 0 mm 3 mps 737 mmHg 91%
19:00 +18°C° 0 mm 3 mps 737 mmHg 93%
20:00 +17°C° 0 mm 3 mps 737 mmHg 94%
21:00 +17°C° 0 mm 3 mps 737 mmHg 95%
22:00 +16°C° 0 mm 3 mps 738 mmHg 95%
23:00 +16°C° 0 mm 3 mps 738 mmHg 95%

3 August, Tuesday

Time Temperature Precipitation Wind Pressure Humidity
00:00 +14°C° 0 mm 3 mps 739 mmHg 96%
01:00 +14°C° 0 mm 2 mps 739 mmHg 97%
02:00 +13°C° 0 mm 2 mps 739 mmHg 98%
03:00 +13°C° 0 mm 2 mps 740 mmHg 98%
04:00 +13°C° 0 mm 2 mps 740 mmHg 98%
05:00 +13°C° 0 mm 2 mps 740 mmHg 98%
06:00 +15°C° 0 mm 2 mps 741 mmHg 90%
07:00 +16°C° 0 mm 3 mps 741 mmHg 82%
08:00 +18°C° 0 mm 3 mps 741 mmHg 75%
09:00 +19°C° 0 mm 3 mps 742 mmHg 65%
10:00 +21°C° 0 mm 4 mps 742 mmHg 56%
11:00 +22°C° 0 mm 4 mps 742 mmHg 47%
12:00 +22°C° 0 mm 4 mps 742 mmHg 47%
13:00 +22°C° 0 mm 4 mps 742 mmHg 47%
14:00 +23°C° 0 mm 4 mps 743 mmHg 48%
15:00 +22°C° 0 mm 4 mps 743 mmHg 53%
16:00 +21°C° 0 mm 3 mps 743 mmHg 58%
17:00 +20°C° 0 mm 3 mps 743 mmHg 64%
18:00 +18°C° 0.2 mm 2 mps 744 mmHg 72%
19:00 +17°C° 0.2 mm 2 mps 744 mmHg 80%
20:00 +16°C° 0.2 mm 2 mps 744 mmHg 88%
21:00 +15°C° 0 mm 1 mps 744 mmHg 90%
22:00 +15°C° 0 mm 1 mps 745 mmHg 93%
23:00 +14°C° 0 mm 1 mps 745 mmHg 95%

4 August, Wednesday

Time Temperature Precipitation Wind Pressure Humidity
00:00 +14°C° 0 mm 1 mps 745 mmHg 96%
01:00 +13°C° 0 mm 1 mps 746 mmHg 96%
02:00 +13°C° 0 mm 1 mps 746 mmHg 97%
03:00 +13°C° 0 mm 1 mps 746 mmHg 97%
04:00 +13°C° 0 mm 1 mps 746 mmHg 97%
05:00 +12°C° 0 mm 0 mps 747 mmHg 97%
06:00 +13°C° 0 mm 0 mps 747 mmHg 92%
07:00 +15°C° 0 mm 0 mps 747 mmHg 87%
08:00 +16°C° 0 mm 0 mps 747 mmHg 82%
09:00 +18°C° 0.1 mm 0 mps 748 mmHg 73%
10:00 +20°C° 0.1 mm 0 mps 748 mmHg 65%
11:00 +22°C° 0.1 mm 0 mps 748 mmHg 57%
12:00 +22°C° 0.2 mm 0 mps 748 mmHg 54%
13:00 +23°C° 0.2 mm 0 mps 748 mmHg 51%
14:00 +25°C° 0.2 mm 1 mps 748 mmHg 48%
15:00 +24°C° 0.2 mm 1 mps 748 mmHg 57%
16:00 +23°C° 0.2 mm 1 mps 747 mmHg 65%
17:00 +22°C° 0.2 mm 1 mps 747 mmHg 73%
18:00 +20°C° 0.1 mm 1 mps 747 mmHg 79%
19:00 +18°C° 0.1 mm 2 mps 747 mmHg 84%
20:00 +16°C° 0.1 mm 2 mps 748 mmHg 90%
21:00 +16°C° 0 mm 2 mps 747 mmHg 91%
22:00 +15°C° 0 mm 2 mps 747 mmHg 93%
23:00 +15°C° 0 mm 2 mps 747 mmHg 95%
Show more

We Need Your Consent

Meteoprog and our Service Providers may store and access personal data such as cookies, device identifiers or other similar technologies on your device and process such data to personalise content and ads, as well as provide social media features and to analyse the traffic.

  • Store and/or access information on your device

    Cookies, device identifiers or other information can be stored or accessed on your device for the purposes indicated above.

  • Personalised ads and content, ad and content measurement, audience insights, and products development

    Ads and content can be personalised based on a profile. More data can be added to better personalise ads and content. Ad and content performance can be measured. Insights about the audience who saw the ads and content can be derived. Such data can be used to develop or improve user’s experience, systems and software.

By clicking ‘I Agree’ you will allow the use of indicated cookies, device identifiers, web beacons or other similar technologies. Your settings can be changed in the browser on your device.

For certain purposes, legitimate interests may be relied on, rather than consent. You can read more about this in our Privacy and Cookie Policy.